FLOCK 3P-3 (41968 NORAD) Tracking and Keplerian Element Data

This shows tracking and keplerian element data for the satellite.

Feedback or suggestion? Click here.




ElementValue
Catalog41968
NameFLOCK 3P-3
Epoch Orbit5524
Epoch Day45.457034
Epoch Year2018
RAAN110.92
Inclination97.4654
Eccentricity0.0009851
Argument of Perigee68.4422
Mean Anonmoly291.7864
Mean Motion15.23905494
Decay Rate1.501E-05
L11 41968U 17008W 18045.45703400 .00001501 00000-0 65076-4 0 9990
L22 41968 97.4654 110.9200 0009851 68.4422 291.7864 15.23905494 55242

Live tracking and technical data element details for FLOCK 3P-3 (NORAD 41968). FLOCK 3P-3 can be tracked NOW for your location showing map with azimuth and elevation plus other details from your city location.

Track the satellite on the map from your city or location and see movement details for azimuth, elevation, latitude, longitude, range, height, and movement on the map or in text.







IsCatalogInMostPopularTable: catalog: 41968, numindb: 124
Update: records affected: 1



GetName: 41968 FLOCK 3P-3

Hit Count: updated at: Wed, 14 Nov 2018 12:07:33 GMT